date,time,SUV Intensity [MED/Hr],UV Index,Daily total [MED],Since Last [MED]
24/08/2022,00:12:02,0.000,0.0,0.0,0.0
24/08/2022,00:13:02,-0.000,0.0,0.0,0.0
24/08/2022,00:14:02,0.000,0.0,0.0,0.0
24/08/2022,00:15:02,0.000,0.0,0.0,0.0
24/08/2022,00:16:01,0.000,0.0,0.0,0.0
24/08/2022,00:17:02,0.000,0.0,0.0,0.0
24/08/2022,00:18:02,-0.001,0.0,0.0,0.0
24/08/2022,00:19:02,0.001,0.0,0.0,0.0
24/08/2022,00:20:18,0.000,0.0,0.0,0.0
24/08/2022,00:22:02,0.000,0.0,0.0,0.0
24/08/2022,00:23:02,0.001,0.0,0.0,0.0
24/08/2022,00:24:10,0.000,0.0,0.0,0.0
24/08/2022,00:25:02,-0.000,0.0,0.0,0.0
24/08/2022,00:26:02,0.000,0.0,0.0,0.0
24/08/2022,00:27:02,-0.000,0.0,0.0,0.0
24/08/2022,00:28:02,-0.001,0.0,0.0,0.0
24/08/2022,00:29:02,0.000,0.0,0.0,0.0
24/08/2022,00:30:02,0.000,0.0,0.0,0.0
24/08/2022,00:31:02,-0.000,0.0,0.0,0.0
24/08/2022,00:32:01,0.000,0.0,0.0,0.0
24/08/2022,00:33:02,0.000,0.0,0.0,0.0
24/08/2022,00:34:02,-0.001,0.0,0.0,0.0
24/08/2022,00:35:02,0.000,0.0,0.0,0.0
24/08/2022,00:36:02,-0.001,0.0,0.0,0.0
24/08/2022,00:37:02,0.001,0.0,0.0,0.0
24/08/2022,00:38:02,-0.001,0.0,0.0,0.0
24/08/2022,00:39:11,0.000,0.0,0.0,0.0
24/08/2022,00:40:00,0.000,0.0,0.0,0.0
24/08/2022,00:41:02,0.000,0.0,0.0,0.0
24/08/2022,00:42:10,0.001,0.0,0.0,0.0
24/08/2022,00:43:02,-0.001,0.0,0.0,0.0
24/08/2022,00:44:18,0.000,0.0,0.0,0.0
24/08/2022,00:46:02,0.001,0.0,0.0,0.0
24/08/2022,00:47:01,0.001,0.0,0.0,0.0
24/08/2022,00:48:02,0.001,0.0,0.0,0.0
24/08/2022,00:49:02,-0.001,0.0,0.0,0.0
24/08/2022,00:50:02,0.000,0.0,0.0,0.0
24/08/2022,00:51:02,0.000,0.0,0.0,0.0
24/08/2022,00:52:02,0.000,0.0,0.0,0.0
24/08/2022,00:53:02,0.000,0.0,0.0,0.0
24/08/2022,00:54:02,0.000,0.0,0.0,0.0
24/08/2022,00:55:02,-0.001,0.0,0.0,0.0
24/08/2022,00:56:02,0.000,0.0,0.0,0.0
24/08/2022,00:57:02,0.000,0.0,0.0,0.0
24/08/2022,00:58:11,0.000,0.0,0.0,0.0
24/08/2022,00:59:02,0.001,0.0,0.0,0.0
24/08/2022,01:00:10,0.001,0.0,0.0,0.0
24/08/2022,01:01:02,0.000,0.0,0.0,0.0
24/08/2022,01:02:02,0.000,0.0,0.0,0.0
24/08/2022,01:03:02,0.000,0.0,0.0,0.0
24/08/2022,01:04:02,0.000,0.0,0.0,0.0
24/08/2022,01:05:02,-0.001,0.0,0.0,0.0
24/08/2022,01:06:02,0.001,0.0,0.0,0.0
24/08/2022,01:07:02,0.000,0.0,0.0,0.0
24/08/2022,01:08:03,0.000,0.0,0.0,0.0
24/08/2022,01:09:01,0.000,0.0,0.0,0.0
24/08/2022,01:10:02,0.000,0.0,0.0,0.0
24/08/2022,01:11:02,0.000,0.0,0.0,0.0
24/08/2022,01:12:02,0.000,0.0,0.0,0.0
24/08/2022,01:13:02,0.000,0.0,0.0,0.0
24/08/2022,01:14:02,0.000,0.0,0.0,0.0
24/08/2022,01:15:04,0.000,0.0,0.0,0.0
24/08/2022,01:16:03,0.000,0.0,0.0,0.0
24/08/2022,01:17:02,0.000,0.0,0.0,0.0
24/08/2022,01:18:01,-0.000,0.0,0.0,0.0
24/08/2022,01:19:10,0.000,0.0,0.0,0.0
24/08/2022,01:20:02,0.000,0.0,0.0,0.0
24/08/2022,01:21:02,0.001,0.0,0.0,0.0
24/08/2022,01:22:10,0.001,0.0,0.0,0.0
24/08/2022,01:23:01,0.000,0.0,0.0,0.0
24/08/2022,01:24:02,-0.000,0.0,0.0,0.0
24/08/2022,01:25:02,0.000,0.0,0.0,0.0
24/08/2022,01:26:03,0.000,0.0,0.0,0.0
24/08/2022,01:27:02,0.000,0.0,0.0,0.0
24/08/2022,01:28:02,-0.001,0.0,0.0,0.0
24/08/2022,01:29:02,0.001,0.0,0.0,0.0
24/08/2022,01:30:02,0.000,0.0,0.0,0.0
24/08/2022,01:31:02,0.000,0.0,0.0,0.0
24/08/2022,01:32:02,0.000,0.0,0.0,0.0
24/08/2022,01:33:02,0.000,0.0,0.0,0.0
24/08/2022,01:34:02,0.000,0.0,0.0,0.0
24/08/2022,01:35:02,0.000,0.0,0.0,0.0
24/08/2022,01:36:02,-0.001,0.0,0.0,0.0
24/08/2022,01:37:02,0.000,0.0,0.0,0.0
24/08/2022,01:38:02,0.001,0.0,0.0,0.0
24/08/2022,01:39:02,0.000,0.0,0.0,0.0
24/08/2022,01:40:11,0.000,0.0,0.0,0.0
24/08/2022,01:41:02,0.000,0.0,0.0,0.0
24/08/2022,01:42:02,0.001,0.0,0.0,0.0
24/08/2022,01:43:10,0.000,0.0,0.0,0.0
24/08/2022,01:44:02,-0.001,0.0,0.0,0.0
24/08/2022,01:45:02,0.000,0.0,0.0,0.0
24/08/2022,01:46:10,0.001,0.0,0.0,0.0
24/08/2022,01:47:02,0.000,0.0,0.0,0.0
24/08/2022,01:48:02,0.001,0.0,0.0,0.0
24/08/2022,01:49:02,0.000,0.0,0.0,0.0
24/08/2022,01:50:02,-0.000,0.0,0.0,0.0
24/08/2022,01:51:03,0.001,0.0,0.0,0.0
24/08/2022,01:52:02,0.000,0.0,0.0,0.0
24/08/2022,01:53:02,0.000,0.0,0.0,0.0
24/08/2022,01:54:02,0.000,0.0,0.0,0.0
24/08/2022,01:55:02,-0.001,0.0,0.0,0.0
24/08/2022,01:56:11,0.000,0.0,0.0,0.0
24/08/2022,01:57:02,0.000,0.0,0.0,0.0
24/08/2022,01:58:11,-0.001,0.0,0.0,0.0
24/08/2022,01:59:02,0.000,0.0,0.0,0.0
24/08/2022,02:00:02,0.000,0.0,0.0,0.0
24/08/2022,02:01:02,0.000,0.0,0.0,0.0
24/08/2022,02:02:02,0.000,0.0,0.0,0.0
24/08/2022,02:03:02,0.000,0.0,0.0,0.0
24/08/2022,02:04:02,0.000,0.0,0.0,0.0
24/08/2022,02:05:02,0.001,0.0,0.0,0.0
24/08/2022,02:06:02,0.001,0.0,0.0,0.0
24/08/2022,02:07:02,0.000,0.0,0.0,0.0
24/08/2022,02:08:10,0.000,0.0,0.0,0.0
24/08/2022,02:09:02,0.000,0.0,0.0,0.0
24/08/2022,02:10:02,0.000,0.0,0.0,0.0
24/08/2022,02:11:11,0.000,0.0,0.0,0.0
24/08/2022,02:12:02,0.000,0.0,0.0,0.0
24/08/2022,02:13:02,0.000,0.0,0.0,0.0
24/08/2022,02:14:11,0.000,0.0,0.0,0.0
24/08/2022,02:15:02,0.000,0.0,0.0,0.0
24/08/2022,02:16:02,0.001,0.0,0.0,0.0
24/08/2022,02:17:10,0.000,0.0,0.0,0.0
24/08/2022,02:18:01,0.000,0.0,0.0,0.0
24/08/2022,02:19:11,-0.000,0.0,0.0,0.0
24/08/2022,02:20:01,0.000,0.0,0.0,0.0
24/08/2022,02:21:02,0.000,0.0,0.0,0.0
24/08/2022,02:22:02,0.000,0.0,0.0,0.0
24/08/2022,02:23:02,0.000,0.0,0.0,0.0
24/08/2022,02:24:02,0.000,0.0,0.0,0.0
24/08/2022,02:25:02,0.001,0.0,0.0,0.0
24/08/2022,02:26:02,0.000,0.0,0.0,0.0
24/08/2022,02:27:03,0.000,0.0,0.0,0.0
24/08/2022,02:28:02,0.000,0.0,0.0,0.0
24/08/2022,02:29:02,0.000,0.0,0.0,0.0
24/08/2022,02:30:02,-0.000,0.0,0.0,0.0
24/08/2022,02:31:02,0.000,0.0,0.0,0.0
24/08/2022,02:32:02,0.000,0.0,0.0,0.0
24/08/2022,02:33:02,0.000,0.0,0.0,0.0
24/08/2022,02:34:02,0.000,0.0,0.0,0.0
24/08/2022,02:35:11,0.000,0.0,0.0,0.0
24/08/2022,02:36:02,0.000,0.0,0.0,0.0
24/08/2022,02:37:02,0.000,0.0,0.0,0.0
24/08/2022,02:38:02,0.000,0.0,0.0,0.0
24/08/2022,02:39:02,0.000,0.0,0.0,0.0
24/08/2022,02:40:02,0.000,0.0,0.0,0.0
24/08/2022,02:41:03,-0.001,0.0,0.0,0.0
24/08/2022,02:42:02,-0.001,0.0,0.0,0.0
24/08/2022,02:43:02,0.000,0.0,0.0,0.0
24/08/2022,02:44:02,0.000,0.0,0.0,0.0
24/08/2022,02:45:02,0.000,0.0,0.0,0.0
24/08/2022,02:46:02,0.000,0.0,0.0,0.0
24/08/2022,02:47:02,0.001,0.0,0.0,0.0
24/08/2022,02:48:02,0.001,0.0,0.0,0.0
24/08/2022,02:49:02,-0.001,0.0,0.0,0.0
24/08/2022,02:50:02,0.000,0.0,0.0,0.0
24/08/2022,02:51:03,0.000,0.0,0.0,0.0
24/08/2022,02:52:02,0.000,0.0,0.0,0.0
24/08/2022,02:53:03,0.000,0.0,0.0,0.0
24/08/2022,02:54:02,-0.000,0.0,0.0,0.0
24/08/2022,02:55:02,0.000,0.0,0.0,0.0
24/08/2022,02:56:14,-0.001,0.0,0.0,0.0
24/08/2022,02:58:02,0.000,0.0,0.0,0.0
24/08/2022,02:59:02,0.000,0.0,0.0,0.0
24/08/2022,03:00:02,-0.000,0.0,0.0,0.0
24/08/2022,03:01:02,0.001,0.0,0.0,0.0
24/08/2022,03:02:02,0.000,0.0,0.0,0.0
24/08/2022,03:03:02,0.001,0.0,0.0,0.0
24/08/2022,03:04:02,0.000,0.0,0.0,0.0
24/08/2022,03:05:03,0.000,0.0,0.0,0.0
24/08/2022,03:06:02,0.001,0.0,0.0,0.0
24/08/2022,03:07:02,0.000,0.0,0.0,0.0
24/08/2022,03:08:02,0.000,0.0,0.0,0.0
24/08/2022,03:09:10,0.000,0.0,0.0,0.0
24/08/2022,03:10:02,0.000,0.0,0.0,0.0
24/08/2022,03:11:02,0.000,0.0,0.0,0.0
24/08/2022,03:12:02,0.000,0.0,0.0,0.0
24/08/2022,03:13:02,0.001,0.0,0.0,0.0
24/08/2022,03:14:03,0.000,0.0,0.0,0.0
24/08/2022,03:15:10,0.001,0.0,0.0,0.0
24/08/2022,03:16:02,0.000,0.0,0.0,0.0
24/08/2022,03:17:11,0.001,0.0,0.0,0.0
24/08/2022,03:18:02,0.000,0.0,0.0,0.0
24/08/2022,03:19:02,-0.001,0.0,0.0,0.0
24/08/2022,03:20:03,-0.000,0.0,0.0,0.0
24/08/2022,03:21:02,0.000,0.0,0.0,0.0
24/08/2022,03:22:03,0.000,0.0,0.0,0.0
24/08/2022,03:23:02,0.001,0.0,0.0,0.0
24/08/2022,03:24:02,-0.000,0.0,0.0,0.0
24/08/2022,03:25:03,0.000,0.0,0.0,0.0
24/08/2022,03:26:02,-0.001,0.0,0.0,0.0
24/08/2022,03:27:02,0.000,0.0,0.0,0.0
24/08/2022,03:28:03,0.000,0.0,0.0,0.0
24/08/2022,03:29:02,0.000,0.0,0.0,0.0
24/08/2022,03:30:10,0.000,0.0,0.0,0.0
24/08/2022,03:31:02,-0.001,0.0,0.0,0.0
24/08/2022,03:32:02,0.001,0.0,0.0,0.0
24/08/2022,03:33:11,0.000,0.0,0.0,0.0
24/08/2022,03:34:02,0.000,0.0,0.0,0.0
24/08/2022,03:35:02,-0.000,0.0,0.0,0.0
24/08/2022,03:36:03,0.000,0.0,0.0,0.0
24/08/2022,03:37:02,0.000,0.0,0.0,0.0
24/08/2022,03:38:02,0.001,0.0,0.0,0.0
24/08/2022,03:39:02,0.001,0.0,0.0,0.0
24/08/2022,03:40:02,0.000,0.0,0.0,0.0
24/08/2022,03:41:02,0.000,0.0,0.0,0.0
24/08/2022,03:42:03,-0.001,0.0,0.0,0.0
24/08/2022,03:43:02,0.000,0.0,0.0,0.0
24/08/2022,03:44:02,0.000,0.0,0.0,0.0
24/08/2022,03:45:02,0.000,0.0,0.0,0.0
24/08/2022,03:46:03,0.000,0.0,0.0,0.0
24/08/2022,03:47:02,0.000,0.0,0.0,0.0
24/08/2022,03:48:02,0.000,0.0,0.0,0.0
24/08/2022,03:49:02,-0.000,0.0,0.0,0.0
24/08/2022,03:50:02,-0.001,0.0,0.0,0.0
24/08/2022,03:51:02,0.001,0.0,0.0,0.0
24/08/2022,03:52:02,0.000,0.0,0.0,0.0
24/08/2022,03:53:02,0.000,0.0,0.0,0.0
24/08/2022,03:54:11,0.000,0.0,0.0,0.0
24/08/2022,03:55:02,0.000,0.0,0.0,0.0
24/08/2022,03:56:02,-0.001,0.0,0.0,0.0
24/08/2022,03:57:02,0.000,0.0,0.0,0.0
24/08/2022,03:58:02,0.000,0.0,0.0,0.0
24/08/2022,03:59:02,-0.001,0.0,0.0,0.0
24/08/2022,04:00:02,0.000,0.0,0.0,0.0
24/08/2022,04:01:15,0.000,0.0,0.0,0.0
24/08/2022,04:03:03,0.000,0.0,0.0,0.0
24/08/2022,04:04:02,-0.000,0.0,0.0,0.0
24/08/2022,04:05:02,-0.000,0.0,0.0,0.0
24/08/2022,04:06:02,0.000,0.0,0.0,0.0
24/08/2022,04:07:02,0.000,0.0,0.0,0.0
24/08/2022,04:08:02,-0.001,0.0,0.0,0.0
24/08/2022,04:09:02,0.001,0.0,0.0,0.0
24/08/2022,04:10:10,0.000,0.0,0.0,0.0
24/08/2022,04:11:02,-0.000,0.0,0.0,0.0
24/08/2022,04:12:03,0.001,0.0,0.0,0.0
24/08/2022,04:13:02,-0.000,0.0,0.0,0.0
24/08/2022,04:14:03,0.000,0.0,0.0,0.0
24/08/2022,04:15:02,0.000,0.0,0.0,0.0
24/08/2022,04:16:10,0.000,0.0,0.0,0.0
24/08/2022,04:17:03,0.001,0.0,0.0,0.0
24/08/2022,04:18:03,0.000,0.0,0.0,0.0
24/08/2022,04:19:02,0.000,0.0,0.0,0.0
24/08/2022,04:20:02,0.000,0.0,0.0,0.0
24/08/2022,04:21:02,0.000,0.0,0.0,0.0
24/08/2022,04:22:03,0.000,0.0,0.0,0.0
24/08/2022,04:23:02,0.000,0.0,0.0,0.0
24/08/2022,04:24:02,-0.001,0.0,0.0,0.0
24/08/2022,04:25:03,0.000,0.0,0.0,0.0
24/08/2022,04:26:02,0.000,0.0,0.0,0.0
24/08/2022,04:27:02,0.001,0.0,0.0,0.0
24/08/2022,04:28:03,-0.001,0.0,0.0,0.0
24/08/2022,04:29:02,0.000,0.0,0.0,0.0
24/08/2022,04:30:02,0.001,0.0,0.0,0.0
24/08/2022,04:31:11,0.001,0.0,0.0,0.0
24/08/2022,04:32:02,0.000,0.0,0.0,0.0
24/08/2022,04:33:02,0.001,0.0,0.0,0.0
24/08/2022,04:34:11,0.000,0.0,0.0,0.0
24/08/2022,04:35:03,0.000,0.0,0.0,0.0
24/08/2022,04:36:02,0.000,0.0,0.0,0.0
24/08/2022,04:37:02,0.001,0.0,0.0,0.0
24/08/2022,04:38:02,0.001,0.0,0.0,0.0
24/08/2022,04:39:02,0.000,0.0,0.0,0.0
24/08/2022,04:40:02,0.000,0.0,0.0,0.0
24/08/2022,04:41:03,0.000,0.0,0.0,0.0
24/08/2022,04:42:10,0.001,0.0,0.0,0.0
24/08/2022,04:43:03,0.000,0.0,0.0,0.0
24/08/2022,04:44:03,0.000,0.0,0.0,0.0
24/08/2022,04:45:02,-0.001,0.0,0.0,0.0
24/08/2022,04:46:03,-0.001,0.0,0.0,0.0
24/08/2022,04:57:01,0.000,0.0,0.0,0.0
24/08/2022,04:58:03,-0.001,0.0,0.0,0.0
24/08/2022,04:59:02,0.000,0.0,0.0,0.0
24/08/2022,05:00:02,0.000,0.0,0.0,0.0
24/08/2022,05:01:03,0.001,0.0,0.0,0.0
24/08/2022,05:02:02,0.001,0.0,0.0,0.0
24/08/2022,05:03:02,0.001,0.0,0.0,0.0
24/08/2022,05:04:03,0.001,0.0,0.0,0.0
24/08/2022,05:05:02,0.001,0.0,0.0,0.0
24/08/2022,05:06:02,0.001,0.0,0.0,0.0
24/08/2022,05:07:02,0.001,0.0,0.0,0.0
24/08/2022,05:08:02,0.001,0.0,0.0,0.0
24/08/2022,05:09:03,0.001,0.0,0.0,0.0
24/08/2022,05:10:02,0.002,0.0,0.0,0.0
24/08/2022,05:11:10,0.001,0.0,0.0,0.0
24/08/2022,05:12:02,0.001,0.0,0.0,0.0
24/08/2022,05:13:03,0.000,0.0,0.0,0.0
24/08/2022,05:14:02,0.002,0.0,0.0,0.0
24/08/2022,05:15:04,0.002,0.0,0.0,0.0
24/08/2022,05:16:02,0.002,0.0,0.0,0.0
24/08/2022,05:17:10,0.002,0.0,0.0,0.0
24/08/2022,05:18:03,0.003,0.0,0.0,0.0
24/08/2022,05:19:03,0.002,0.0,0.0,0.0
24/08/2022,05:20:02,0.003,0.0,0.0,0.0
24/08/2022,05:21:03,0.003,0.0,0.0,0.0
24/08/2022,05:22:03,0.004,0.0,0.0,0.0
24/08/2022,05:23:03,0.005,0.0,0.0,0.0
24/08/2022,05:24:02,0.006,0.0,0.0,0.0
24/08/2022,05:25:03,0.005,0.0,0.0,0.0
24/08/2022,05:26:02,0.004,0.0,0.0,0.0
24/08/2022,05:27:02,0.005,0.0,0.0,0.0
24/08/2022,05:28:03,0.006,0.0,0.0,0.0
24/08/2022,05:29:02,0.006,0.0,0.0,0.0
24/08/2022,05:30:02,0.006,0.0,0.0,0.0
24/08/2022,05:31:03,0.007,0.0,0.0,0.0
24/08/2022,05:32:10,0.007,0.0,0.0,0.0
24/08/2022,05:33:02,0.008,0.0,0.0,0.0
24/08/2022,05:34:02,0.009,0.0,0.001,0.001
24/08/2022,05:35:10,0.009,0.0,0.001,0.0
24/08/2022,05:36:03,0.009,0.0,0.001,0.0
24/08/2022,05:37:04,0.009,0.0,0.001,0.0
24/08/2022,05:38:02,0.010,0.0,0.001,0.0
24/08/2022,05:39:02,0.010,0.0,0.001,0.0
24/08/2022,05:40:03,0.011,0.0,0.002,0.001
24/08/2022,05:41:02,0.012,0.0,0.002,0.0
24/08/2022,05:42:03,0.013,0.0,0.002,0.0
24/08/2022,05:43:02,0.013,0.0,0.002,0.0
24/08/2022,05:44:02,0.014,0.0,0.002,0.0
24/08/2022,05:45:03,0.014,0.0,0.003,0.001
24/08/2022,05:46:02,0.014,0.0,0.003,0.0
24/08/2022,05:47:03,0.015,0.0,0.003,0.0
24/08/2022,05:48:02,0.016,0.0,0.003,0.0
24/08/2022,05:49:02,0.017,0.0,0.004,0.001
24/08/2022,05:50:03,0.017,0.0,0.004,0.0
24/08/2022,05:51:02,0.018,0.0,0.004,0.0
24/08/2022,05:52:02,0.019,0.0,0.005,0.001
24/08/2022,05:53:03,0.019,0.0,0.005,0.0
24/08/2022,05:54:10,0.021,0.0,0.005,0.0
24/08/2022,05:55:02,0.021,0.0,0.006,0.001
24/08/2022,05:56:03,0.022,0.0,0.006,0.0
24/08/2022,05:57:11,0.022,0.0,0.006,0.0
24/08/2022,05:58:02,0.023,0.0,0.007,0.001
24/08/2022,05:59:02,0.022,0.0,0.007,0.0
24/08/2022,06:00:02,0.023,0.0,0.007,0.0
24/08/2022,06:01:02,0.025,0.0,0.008,0.001
24/08/2022,06:02:02,0.024,0.0,0.008,0.0
24/08/2022,06:03:03,0.025,0.0,0.009,0.001
24/08/2022,06:04:02,0.023,0.0,0.009,0.0
24/08/2022,06:05:02,0.025,0.0,0.009,0.0
24/08/2022,06:06:02,0.026,0.0,0.01,0.001
24/08/2022,06:07:02,0.025,0.0,0.01,0.0
24/08/2022,06:08:02,0.026,0.0,0.011,0.001
24/08/2022,06:09:02,0.027,0.0,0.011,0.0
24/08/2022,06:10:02,0.027,0.0,0.012,0.001
24/08/2022,06:11:03,0.028,0.0,0.012,0.0
24/08/2022,06:12:11,0.029,0.0,0.013,0.001
24/08/2022,06:13:07,0.030,0.0,0.013,0.0
24/08/2022,06:14:02,0.031,0.0,0.013,0.0
24/08/2022,06:15:11,0.032,0.0,0.014,0.001
24/08/2022,06:16:02,0.034,0.0,0.015,0.001
24/08/2022,06:17:02,0.035,0.0,0.015,0.0
24/08/2022,06:18:10,0.037,0.0,0.016,0.001
24/08/2022,06:19:03,0.039,0.0,0.016,0.0
24/08/2022,06:20:03,0.037,0.0,0.017,0.001
24/08/2022,06:21:18,0.039,0.0,0.018,0.001
24/08/2022,06:23:04,0.042,0.0,0.019,0.001
24/08/2022,06:24:02,0.043,0.0,0.02,0.001
24/08/2022,06:25:02,0.044,0.0,0.02,0.0
24/08/2022,06:26:02,0.045,0.0,0.021,0.001
24/08/2022,06:27:02,0.047,0.0,0.022,0.001
24/08/2022,06:28:02,0.050,0.0,0.023,0.001
24/08/2022,06:29:02,0.054,0.0,0.024,0.001
24/08/2022,06:30:02,0.055,0.0,0.024,0.0
24/08/2022,06:31:11,0.057,0.0,0.026,0.002
24/08/2022,06:32:02,0.058,0.0,0.026,0.0
24/08/2022,06:32:57,0.062,0.0,0.027,0.001
24/08/2022,06:34:03,0.065,0.0,0.028,0.001
24/08/2022,06:35:03,0.069,0.0,0.03,0.002
24/08/2022,06:36:03,0.071,0.0,0.031,0.001
24/08/2022,06:37:03,0.061,0.0,0.032,0.001
24/08/2022,06:38:02,0.078,0.0,0.033,0.001
24/08/2022,06:39:03,0.080,0.0,0.034,0.001
24/08/2022,06:40:03,0.082,0.0,0.036,0.002
24/08/2022,06:41:03,0.087,0.0,0.037,0.001
24/08/2022,06:42:02,0.089,0.0,0.039,0.002
24/08/2022,06:43:03,0.090,0.0,0.04,0.001
24/08/2022,06:44:02,0.092,0.0,0.042,0.002
24/08/2022,06:45:03,0.096,0.0,0.043,0.001
24/08/2022,06:46:02,0.096,0.0,0.045,0.002
24/08/2022,06:47:02,0.098,0.0,0.046,0.001
24/08/2022,06:48:03,0.100,0.0,0.048,0.002
24/08/2022,06:49:03,0.102,0.0,0.05,0.002
24/08/2022,06:50:02,0.103,0.0,0.051,0.001
24/08/2022,06:51:02,0.107,0.0,0.053,0.002
24/08/2022,06:52:02,0.111,0.0,0.055,0.002
24/08/2022,06:53:03,0.115,0.0,0.057,0.002
24/08/2022,06:54:02,0.117,0.0,0.059,0.002
24/08/2022,06:55:03,0.121,0.0,0.061,0.002
24/08/2022,06:56:02,0.123,0.0,0.063,0.002
24/08/2022,06:57:03,0.126,0.0,0.065,0.002
24/08/2022,06:58:02,0.128,0.0,0.067,0.002
24/08/2022,06:59:02,0.132,0.0,0.069,0.002
24/08/2022,07:00:03,0.135,0.0,0.072,0.003
24/08/2022,07:01:11,0.140,0.0,0.074,0.002
24/08/2022,07:02:03,0.140,0.0,0.076,0.002
24/08/2022,07:03:03,0.140,0.0,0.079,0.003
24/08/2022,07:04:11,0.138,0.0,0.081,0.002
24/08/2022,07:05:02,0.137,0.0,0.083,0.002
24/08/2022,07:06:02,0.140,0.0,0.086,0.003
24/08/2022,07:07:03,0.145,0.0,0.088,0.002
24/08/2022,07:08:03,0.142,0.0,0.09,0.002
24/08/2022,07:09:02,0.145,0.0,0.093,0.003
24/08/2022,07:10:03,0.148,0.0,0.095,0.002
24/08/2022,07:11:02,0.147,0.0,0.098,0.003
24/08/2022,07:12:02,0.149,0.0,0.1,0.002
24/08/2022,07:13:03,0.154,0.0,0.103,0.003
24/08/2022,07:14:02,0.158,0.0,0.105,0.002
24/08/2022,07:15:02,0.165,0.0,0.108,0.003
24/08/2022,07:16:03,0.177,0.0,0.111,0.003
24/08/2022,07:17:10,0.172,0.0,0.114,0.003
24/08/2022,07:18:03,0.188,0.0,0.117,0.003
24/08/2022,07:19:03,0.177,0.0,0.12,0.003
24/08/2022,07:20:02,0.198,0.0,0.123,0.003
24/08/2022,07:21:02,0.202,0.0,0.126,0.003
24/08/2022,07:22:03,0.182,0.0,0.129,0.003
24/08/2022,07:23:11,0.181,0.0,0.133,0.004
24/08/2022,07:24:03,0.208,0.0,0.136,0.003
24/08/2022,07:25:03,0.192,0.0,0.139,0.003
24/08/2022,07:26:02,0.198,0.0,0.142,0.003
24/08/2022,07:27:02,0.202,0.0,0.145,0.003
24/08/2022,07:28:03,0.227,1.0,0.149,0.004
24/08/2022,07:29:02,0.198,0.0,0.152,0.003
24/08/2022,07:30:03,0.205,0.0,0.156,0.004
24/08/2022,07:31:03,0.211,0.0,0.159,0.003
24/08/2022,07:32:02,0.224,1.0,0.163,0.004
24/08/2022,07:33:03,0.223,1.0,0.167,0.004
24/08/2022,07:34:02,0.229,1.0,0.171,0.004
24/08/2022,07:35:02,0.254,1.0,0.174,0.003
24/08/2022,07:36:02,0.222,1.0,0.178,0.004
24/08/2022,07:37:02,0.235,1.0,0.182,0.004
24/08/2022,07:38:03,0.239,1.0,0.186,0.004
24/08/2022,07:39:02,0.260,1.0,0.19,0.004
24/08/2022,07:40:02,0.263,1.0,0.195,0.005
24/08/2022,07:41:11,0.267,1.0,0.2,0.005
24/08/2022,07:42:03,0.271,1.0,0.204,0.004
24/08/2022,07:43:03,0.275,1.0,0.208,0.004
24/08/2022,07:44:04,0.302,1.0,0.213,0.005
24/08/2022,07:45:03,0.294,1.0,0.218,0.005
24/08/2022,07:46:03,0.312,1.0,0.224,0.006
24/08/2022,07:47:02,0.301,1.0,0.229,0.005
24/08/2022,07:48:02,0.348,1.0,0.234,0.005
24/08/2022,07:49:03,0.354,1.0,0.24,0.006
24/08/2022,07:50:02,0.306,1.0,0.246,0.006
24/08/2022,07:51:03,0.319,1.0,0.251,0.005
24/08/2022,07:52:03,0.355,1.0,0.257,0.006
24/08/2022,07:53:03,0.320,1.0,0.262,0.005
24/08/2022,07:54:03,0.320,1.0,0.268,0.006
24/08/2022,07:55:03,0.375,1.0,0.274,0.006
24/08/2022,07:56:02,0.391,1.0,0.28,0.006
24/08/2022,07:57:02,0.398,1.0,0.286,0.006
24/08/2022,07:58:02,0.364,1.0,0.292,0.006
24/08/2022,07:59:02,0.344,1.0,0.298,0.006
24/08/2022,08:00:03,0.404,1.0,0.304,0.006
24/08/2022,08:01:03,0.435,1.0,0.311,0.007
24/08/2022,08:02:06,0.441,1.0,0.319,0.008
24/08/2022,08:03:12,0.454,1.0,0.327,0.008
24/08/2022,08:04:01,0.452,1.0,0.334,0.007
24/08/2022,08:05:11,0.466,1.0,0.343,0.009
24/08/2022,08:06:03,0.392,1.0,0.349,0.006
24/08/2022,08:07:03,0.477,1.0,0.356,0.007
24/08/2022,08:08:03,0.481,1.0,0.364,0.008
24/08/2022,08:09:02,0.490,1.0,0.373,0.009
24/08/2022,08:10:03,0.494,1.0,0.381,0.008
24/08/2022,08:11:03,0.502,1.0,0.389,0.008
24/08/2022,08:12:03,0.514,1.0,0.397,0.008
24/08/2022,08:13:02,0.511,1.0,0.406,0.009
24/08/2022,08:14:02,0.514,1.0,0.415,0.009
24/08/2022,08:15:03,0.520,1.0,0.423,0.008
24/08/2022,08:16:02,0.545,1.0,0.432,0.009
24/08/2022,08:17:03,0.471,1.0,0.441,0.009
24/08/2022,08:18:02,0.541,1.0,0.449,0.008
24/08/2022,08:19:03,0.551,1.0,0.459,0.01
24/08/2022,08:20:02,0.496,1.0,0.468,0.009
24/08/2022,08:21:03,0.461,1.0,0.475,0.007
24/08/2022,08:22:10,0.429,1.0,0.484,0.009
24/08/2022,08:23:02,0.448,1.0,0.49,0.006
24/08/2022,08:24:02,0.544,1.0,0.499,0.009
24/08/2022,08:25:02,0.538,1.0,0.508,0.009
24/08/2022,08:26:02,0.425,1.0,0.516,0.008
24/08/2022,08:27:03,0.481,1.0,0.524,0.008
24/08/2022,08:28:02,0.570,1.0,0.532,0.008
24/08/2022,08:29:02,0.573,1.0,0.54,0.008
24/08/2022,08:30:02,0.462,1.0,0.549,0.009
24/08/2022,08:31:03,0.452,1.0,0.557,0.008
24/08/2022,08:32:03,0.531,1.0,0.564,0.007
24/08/2022,08:33:03,0.507,1.0,0.573,0.009
24/08/2022,08:34:03,0.456,1.0,0.581,0.008
24/08/2022,08:35:11,0.399,1.0,0.589,0.008
24/08/2022,08:36:03,0.355,1.0,0.594,0.005
24/08/2022,08:37:03,0.384,1.0,0.601,0.007
24/08/2022,08:38:11,0.461,1.0,0.609,0.008
24/08/2022,08:39:01,0.469,1.0,0.616,0.007
24/08/2022,08:40:03,0.452,1.0,0.624,0.008
24/08/2022,08:41:02,0.497,1.0,0.632,0.008
24/08/2022,08:42:03,0.539,1.0,0.64,0.008
24/08/2022,08:43:02,0.466,1.0,0.648,0.008
24/08/2022,08:44:02,0.477,1.0,0.656,0.008
24/08/2022,08:45:03,0.451,1.0,0.664,0.008
24/08/2022,08:46:03,0.404,1.0,0.671,0.007
24/08/2022,08:47:03,0.403,1.0,0.678,0.007
24/08/2022,08:48:03,0.443,1.0,0.685,0.007
24/08/2022,08:49:02,0.393,1.0,0.692,0.007
24/08/2022,08:50:03,0.413,1.0,0.699,0.007
24/08/2022,08:51:02,0.450,1.0,0.706,0.007
24/08/2022,08:52:02,0.475,1.0,0.714,0.008
24/08/2022,08:53:03,0.471,1.0,0.722,0.008
24/08/2022,08:54:02,0.446,1.0,0.729,0.007
24/08/2022,08:55:18,0.438,1.0,0.738,0.009
24/08/2022,08:57:03,0.460,1.0,0.752,0.014
24/08/2022,08:58:02,0.443,1.0,0.759,0.007
24/08/2022,08:59:03,0.419,1.0,0.766,0.007
24/08/2022,09:00:02,0.391,1.0,0.773,0.007
24/08/2022,09:01:02,0.414,1.0,0.78,0.007
24/08/2022,09:02:11,0.467,1.0,0.788,0.008
24/08/2022,09:03:02,0.482,1.0,0.795,0.007
24/08/2022,09:04:11,0.496,1.0,0.804,0.009
24/08/2022,09:05:16,0.513,1.0,0.813,0.009
24/08/2022,09:07:03,0.558,1.0,0.83,0.017
24/08/2022,09:08:04,0.561,1.0,0.839,0.009
24/08/2022,09:09:03,0.573,1.0,0.848,0.009
24/08/2022,09:10:02,0.598,1.0,0.858,0.01
24/08/2022,09:11:03,0.677,2.0,0.869,0.011
24/08/2022,09:12:03,0.681,2.0,0.882,0.013
24/08/2022,09:13:03,0.681,2.0,0.893,0.011
24/08/2022,09:14:02,0.840,2.0,0.905,0.012
24/08/2022,09:15:03,0.601,1.0,0.916,0.011
24/08/2022,09:16:02,0.591,1.0,0.926,0.01
24/08/2022,09:17:03,0.605,1.0,0.937,0.011
24/08/2022,09:18:03,0.594,1.0,0.947,0.01
24/08/2022,09:19:03,0.551,1.0,0.957,0.01
24/08/2022,09:20:02,0.515,1.0,0.966,0.009
24/08/2022,09:21:02,0.507,1.0,0.974,0.008
24/08/2022,09:22:03,0.538,1.0,0.983,0.009
24/08/2022,09:23:03,0.543,1.0,0.992,0.009
24/08/2022,09:24:03,0.545,1.0,1.001,0.009
24/08/2022,09:25:02,0.569,1.0,1.01,0.009
24/08/2022,09:26:03,0.637,1.0,1.021,0.011
24/08/2022,09:27:03,0.659,2.0,1.031,0.01
24/08/2022,09:28:11,0.610,1.0,1.043,0.012
24/08/2022,09:29:03,0.585,1.0,1.052,0.009
24/08/2022,09:30:03,0.614,1.0,1.062,0.01
24/08/2022,09:31:11,0.650,1.0,1.074,0.012
24/08/2022,09:32:02,0.662,2.0,1.083,0.009
24/08/2022,09:33:02,0.693,2.0,1.095,0.012
24/08/2022,09:34:03,0.714,2.0,1.106,0.011
24/08/2022,09:35:03,0.780,2.0,1.118,0.012
24/08/2022,09:36:03,0.773,2.0,1.134,0.016
24/08/2022,09:37:02,0.738,2.0,1.147,0.013
24/08/2022,09:38:04,0.774,2.0,1.159,0.012
24/08/2022,09:39:03,0.998,2.0,1.173,0.014
24/08/2022,09:40:03,0.740,2.0,1.187,0.014
24/08/2022,09:41:03,0.803,2.0,1.2,0.013
24/08/2022,09:42:03,0.762,2.0,1.213,0.013
24/08/2022,09:43:03,0.711,2.0,1.225,0.012
24/08/2022,09:44:03,0.900,2.0,1.239,0.014
24/08/2022,09:45:03,0.867,2.0,1.254,0.015
24/08/2022,09:46:11,0.734,2.0,1.268,0.014
24/08/2022,09:47:03,0.933,2.0,1.28,0.012
24/08/2022,09:48:03,0.713,2.0,1.293,0.013
24/08/2022,09:49:03,0.696,2.0,1.305,0.012
24/08/2022,09:50:03,0.626,1.0,1.316,0.011
24/08/2022,09:51:03,0.569,1.0,1.326,0.01
24/08/2022,09:52:02,0.546,1.0,1.335,0.009
24/08/2022,09:53:03,0.563,1.0,1.345,0.01
24/08/2022,09:54:03,0.596,1.0,1.354,0.009
24/08/2022,09:55:03,0.603,1.0,1.364,0.01
24/08/2022,09:56:02,0.594,1.0,1.374,0.01
24/08/2022,09:57:12,0.581,1.0,1.386,0.012
24/08/2022,09:58:01,0.570,1.0,1.394,0.008
24/08/2022,09:59:02,0.511,1.0,1.403,0.009
24/08/2022,10:00:03,0.451,1.0,1.411,0.008
24/08/2022,10:01:03,0.465,1.0,1.418,0.007
24/08/2022,10:02:03,0.520,1.0,1.426,0.008
24/08/2022,10:03:03,0.596,1.0,1.436,0.01
24/08/2022,10:04:03,0.665,2.0,1.446,0.01
24/08/2022,10:05:02,0.690,2.0,1.458,0.012
24/08/2022,10:06:04,0.724,2.0,1.47,0.012
24/08/2022,10:07:03,0.657,2.0,1.48,0.01
24/08/2022,10:08:02,0.624,1.0,1.491,0.011
24/08/2022,10:09:03,0.607,1.0,1.501,0.01
24/08/2022,10:10:02,0.611,1.0,1.511,0.01
24/08/2022,10:11:02,0.605,1.0,1.522,0.011
24/08/2022,10:12:03,0.639,1.0,1.532,0.01
24/08/2022,10:13:03,0.714,2.0,1.544,0.012
24/08/2022,10:14:03,0.782,2.0,1.556,0.012
24/08/2022,10:15:11,0.808,2.0,1.571,0.015
24/08/2022,10:16:02,0.801,2.0,1.582,0.011
24/08/2022,10:17:03,0.776,2.0,1.595,0.013
24/08/2022,10:18:11,0.808,2.0,1.61,0.015
24/08/2022,10:19:03,0.822,2.0,1.622,0.012
24/08/2022,10:20:03,0.789,2.0,1.636,0.014
24/08/2022,10:21:11,0.737,2.0,1.65,0.014
24/08/2022,10:22:04,0.670,2.0,1.661,0.011
24/08/2022,10:23:03,0.622,1.0,1.671,0.01
24/08/2022,10:24:03,0.573,1.0,1.681,0.01
24/08/2022,10:25:03,0.531,1.0,1.69,0.009
24/08/2022,10:26:02,0.513,1.0,1.699,0.009
24/08/2022,10:27:02,0.523,1.0,1.707,0.008
24/08/2022,10:28:03,0.549,1.0,1.717,0.01